Skip Navigation Links
NOAA logo - Click to go to the NOAA homepage
NOAA's National Weather Service
Alaska Aviation Weather Unit
  NWS logo - Click to go to the NWS homepage
Left Navbar Graphic     17 AKDT = 01 GMT

   
NOAA is celebrating 200 years of science, service, and stewardship. Visit the NOAA 200th celebration Web site to learn more.
USA.gov is the U.S. Government's official Web portal to all Federal, state and local government Web resources and services.
Facebook
NWS on Facebook

Important Change Regarding the AAWU Web Presence

 

Over the last several months, the AAWU has been working to navigate its webpages to a nationally supported server. Security, as well as other needs, have necessitated the change.  In the process, we have made an effort to enhance the functionality of our website, as well as some of our products. As of June 27, 2017, aawu.arh.noaa.gov will be discontinued. The new AAWU web address is weather.gov/aawu. It is now live and will run in-parallel with the old site until it is discontinued. Please send any feedback or questions regarding the new webpages to nws.ar.aawu.webauthors@noaa.gov.  Thank you for your patience during this time of transition.
AAWU Home :: Display TAF Add Bookmark
METAR PAIW 251958Z AUTO 17009KT 10SM 09/04 A2996 RMK AO2 SLP146
     T00940044=

METAR PAIW 252058Z AUTO 18013KT 10SM 10/06 A2995 RMK AO2 SLP142
     T01000056 58008=

METAR PAIW 252158Z AUTO 18009KT 10SM 09/06 A2994 RMK AO2 SLP139
     T00890056=

METAR PAIW 252258Z AUTO 22006KT 10SM 08/06 A2992 RMK AO2 SLP132
     T00830061=

SPECI PAIW 252326Z AUTO 16017G22KT 10SM 11/06 A2991 RMK AO2 WSHFT
     2309=

PAIW 252358Z AUTO 16014G20KT 10SM 11/06 A2990 RMK AO2 WSHFT 2309
     SLP127 T01060061 10111 20078 58016=


NOAA's National Weather Service
Alaska Aviation Weather Unit
6930 Sand Lake Road
Anchorage, AK 99502-1845
Disclaimer
Credits
Glossary
Privacy Policy
About Us
Career Opportunities
Contact AAWU Internet Services Site last modified: April, 17th 2012